| time (UTC) | temp C | wind direction | speed KPH | gust KPH | rain 1hr cm | rain 24hr cm | rain mn cm | humidity % | barometer mb |
| 20260503203554 | 30 | 281 | 3.2 | 9.7 | 0.00 | 0.00 | 0.00 | 38 | 1009.7 |
| 20260503203101 | 30 | 155 | 1.6 | 14.5 | 0.00 | 0.00 | 0.00 | 39 | 1009.8 |
| 20260503202552 | 30 | 260 | 1.6 | 14.5 | 0.00 | 0.00 | 0.00 | 39 | 1009.8 |
| 20260503202052 | 30 | 255 | 3.2 | 14.5 | 0.00 | 0.00 | 0.00 | 40 | 1009.9 |
| 20260503201558 | 30 | 175 | 1.6 | 8.0 | 0.00 | 0.00 | 0.00 | 41 | 1009.9 |
| 20260503201053 | 29 | 302 | 1.6 | 8.0 | 0.00 | 0.00 | 0.00 | 42 | 1010.1 |
| 20260503200552 | 29 | 289 | 1.6 | 9.7 | 0.00 | 0.00 | 0.00 | 43 | 1010.0 |
| 20260503200100 | 28 | 110 | 1.6 | 9.7 | 0.00 | 0.00 | 0.00 | 42 | 1010.1 |
| 20260503195551 | 28 | 300 | 3.2 | 9.7 | 0.00 | 0.00 | 0.00 | 42 | 1010.2 |
| 20260503195051 | 28 | 289 | 1.6 | 8.0 | 0.00 | 0.00 | 0.00 | 43 | 1010.3 |
| 20260503194555 | 28 | 170 | 1.6 | 8.0 | 0.00 | 0.00 | 0.00 | 45 | 1010.3 |
| 20260503194051 | 28 | 352 | 3.2 | 8.0 | 0.00 | 0.00 | 0.00 | 45 | 1010.4 |
| 20260503193550 | 28 | 302 | 3.2 | 8.0 | 0.00 | 0.00 | 0.00 | 45 | 1010.5 |
| 20260503193056 | 27 | 285 | 1.6 | 6.4 | 0.00 | 0.00 | 0.00 | 46 | 1010.7 |
| 20260503192552 | 27 | 85 | 1.6 | 6.4 | 0.00 | 0.00 | 0.00 | 45 | 1010.7 |
| 20260503192051 | 27 | 90 | 3.2 | 6.4 | 0.00 | 0.00 | 0.00 | 45 | 1010.8 |
| 20260503191620 | 27 | 210 | 0.0 | 4.8 | 0.00 | 0.00 | 0.00 | 48 | 1010.8 |
| 20260503191052 | 27 | 143 | 1.6 | 6.4 | 0.00 | 0.00 | 0.00 | 48 | 1010.8 |
| 20260503190550 | 26 | 257 | 1.6 | 6.4 | 0.00 | 0.00 | 0.00 | 49 | 1011.0 |
| 20260503190054 | 26 | 257 | 1.6 | 6.4 | 0.00 | 0.00 | 0.00 | 49 | 1011.0 |
| 20260503185556 | 26 | 95 | 1.6 | 6.4 | 0.00 | 0.00 | 0.00 | 49 | 1011.1 |
| 20260503185052 | 25 | 314 | 1.6 | 6.4 | 0.00 | 0.00 | 0.00 | 51 | 1011.1 |
| 20260503184559 | 25 | 97 | 1.6 | 8.0 | 0.00 | 0.00 | 0.00 | 51 | 1011.2 |
| 20260503184054 | 25 | 92 | 3.2 | 8.0 | 0.00 | 0.00 | 0.00 | 51 | 1011.3 |
| 20260503183552 | 25 | 287 | 1.6 | 4.8 | 0.00 | 0.00 | 0.00 | 52 | 1011.3 |
| 20260503183112 | 25 | 0 | 1.6 | 9.7 | 0.00 | 0.00 | 0.00 | 53 | 1011.5 |
| 20260503182549 | 25 | 200 | 1.6 | 9.7 | 0.00 | 0.00 | 0.00 | 53 | 1011.5 |
| 20260503182053 | 25 | 314 | 1.6 | 4.8 | 0.00 | 0.00 | 0.00 | 54 | 1011.5 |
| 20260503181555 | 24 | 243 | 1.6 | 6.4 | 0.00 | 0.00 | 0.00 | 55 | 1011.6 |
| 20260503181052 | 23 | 334 | 1.6 | 6.4 | 0.00 | 0.00 | 0.00 | 57 | 1011.6 |
| 20260503180555 | 23 | 106 | 1.6 | 9.7 | 0.00 | 0.00 | 0.00 | 57 | 1011.8 |
| 20260503180055 | 23 | 298 | 1.6 | 9.7 | 0.00 | 0.00 | 0.00 | 58 | 1011.7 |
| 20260503175551 | 22 | 318 | 3.2 | 6.4 | 0.00 | 0.00 | 0.00 | 59 | 1011.8 |
| 20260503175052 | 22 | 281 | 1.6 | 8.0 | 0.00 | 0.00 | 0.00 | 59 | 1011.8 |
| 20260503174553 | 22 | 92 | 1.6 | 8.0 | 0.00 | 0.00 | 0.00 | 58 | 1011.9 |
| 20260503174052 | 22 | 309 | 1.6 | 6.4 | 0.00 | 0.00 | 0.00 | 61 | 1011.9 |
| 20260503173552 | 22 | 93 | 1.6 | 6.4 | 0.00 | 0.00 | 0.00 | 61 | 1012.0 |
| 20260503173118 | 21 | 288 | 1.6 | 8.0 | 0.00 | 0.00 | 0.00 | 63 | 1012.0 |
| 20260503172552 | 21 | 164 | 0.0 | 8.0 | 0.00 | 0.00 | 0.00 | 65 | 1012.1 |
| 20260503172052 | 21 | 123 | 3.2 | 8.0 | 0.00 | 0.00 | 0.00 | 65 | 1012.1 |
| 20260503171554 | 21 | 310 | 1.6 | 6.4 | 0.00 | 0.00 | 0.00 | 65 | 1012.1 |
| 20260503171049 | 20 | 304 | 1.6 | 8.0 | 0.00 | 0.00 | 0.00 | 67 | 1012.1 |
| 20260503170553 | 20 | 115 | 1.6 | 8.0 | 0.00 | 0.00 | 0.00 | 66 | 1012.1 |
| 20260503150552 | 15 | 287 | 0.0 | 0.0 | 0.00 | 0.00 | 0.00 | 96 | 1012.5 |
| 20260503131051 | 10 | 0 | 0.0 | 0.0 | 0.00 | 0.00 | 0.00 | 94 | 1012.2 |
| 20260503130548 | 10 | 0 | 0.0 | 0.0 | 0.00 | 0.00 | 0.00 | 94 | 1012.2 |
| 20260503120114 | 11 | 0 | 0.0 | 0.0 | 0.00 | 0.00 | 0.00 | 94 | 1012.3 |
| 20260503110553 | 12 | 0 | 0.0 | 1.6 | 0.00 | 0.00 | 0.00 | 94 | 1012.4 |
| 20260503100104 | 12 | 0 | 0.0 | 0.0 | 0.00 | 0.00 | 0.00 | 92 | 1012.4 |
| 20260503081556 | 12 | 0 | 0.0 | 0.0 | 0.00 | 0.00 | 0.00 | 89 | 1012.8 |
| 20260503081053 | 13 | 0 | 0.0 | 0.0 | 0.00 | 0.00 | 0.00 | 89 | 1012.7 |
| 20260503080554 | 13 | 0 | 0.0 | 0.0 | 0.00 | 0.00 | 0.00 | 89 | 1012.8 |
| 20260503072555 | 13 | 0 | 0.0 | 0.0 | 0.00 | 0.00 | 0.00 | 87 | 1012.9 |
| 20260503072053 | 13 | 0 | 0.0 | 0.0 | 0.00 | 0.00 | 0.00 | 87 | 1012.9 |
| 20260503071607 | 13 | 0 | 0.0 | 0.0 | 0.00 | 0.00 | 0.00 | 87 | 1012.9 |
| 20260503071053 | 13 | 0 | 0.0 | 0.0 | 0.00 | 0.00 | 0.00 | 87 | 1012.9 |
| 20260503070555 | 14 | 0 | 0.0 | 0.0 | 0.00 | 0.00 | 0.00 | 86 | 1012.9 |
| 20260503070106 | 14 | 0 | 0.0 | 0.0 | 0.00 | 0.00 | 0.00 | 86 | 1012.9 |
| 20260503055053 | 16 | 0 | 0.0 | 0.0 | 0.00 | 0.00 | 0.00 | 81 | 1012.8 |
| 20260503054553 | 16 | 0 | 0.0 | 0.0 | 0.00 | 0.00 | 0.00 | 80 | 1012.6 |
| 20260503054053 | 16 | 0 | 0.0 | 1.6 | 0.00 | 0.00 | 0.00 | 80 | 1012.5 |
| 20260503053553 | 16 | 0 | 0.0 | 1.6 | 0.00 | 0.00 | 0.00 | 80 | 1012.5 |
| 20260503053055 | 16 | 0 | 0.0 | 0.0 | 0.00 | 0.00 | 0.00 | 78 | 1012.7 |
| 20260503052554 | 16 | 0 | 0.0 | 1.6 | 0.00 | 0.00 | 0.00 | 78 | 1012.6 |
| 20260503052053 | 17 | 0 | 0.0 | 1.6 | 0.00 | 0.00 | 0.00 | 78 | 1012.7 |
| 20260503051554 | 17 | 0 | 0.0 | 1.6 | 0.00 | 0.00 | 0.00 | 78 | 1012.4 |
| 20260503051050 | 17 | 0 | 0.0 | 3.2 | 0.00 | 0.00 | 0.00 | 78 | 1012.7 |
| 20260503050556 | 17 | 314 | 0.0 | 3.2 | 0.00 | 0.00 | 0.00 | 78 | 1012.8 |
| 20260503050059 | 17 | 308 | 0.0 | 3.2 | 0.00 | 0.00 | 0.00 | 78 | 1012.8 |
| 20260503045557 | 17 | 0 | 0.0 | 1.6 | 0.00 | 0.00 | 0.00 | 78 | 1013.1 |
| 20260503045051 | 17 | 0 | 0.0 | 1.6 | 0.00 | 0.00 | 0.00 | 78 | 1013.0 |
| 20260503044555 | 17 | 0 | 0.0 | 1.6 | 0.00 | 0.00 | 0.00 | 78 | 1013.1 |
| 20260503044055 | 17 | 0 | 0.0 | 1.6 | 0.00 | 0.00 | 0.00 | 78 | 1013.1 |
| 20260503043553 | 17 | 0 | 0.0 | 1.6 | 0.00 | 0.00 | 0.00 | 78 | 1013.0 |
| 20260503043057 | 17 | 0 | 0.0 | 0.0 | 0.00 | 0.00 | 0.00 | 77 | 1012.9 |
| 20260503042553 | 17 | 0 | 0.0 | 1.6 | 0.00 | 0.00 | 0.00 | 77 | 1012.9 |
| 20260503042053 | 17 | 0 | 0.0 | 1.6 | 0.00 | 0.00 | 0.00 | 77 | 1012.9 |
| 20260503041610 | 17 | 0 | 0.0 | 1.6 | 0.00 | 0.00 | 0.00 | 76 | 1012.9 |
| 20260503041054 | 17 | 0 | 0.0 | 1.6 | 0.00 | 0.00 | 0.00 | 76 | 1012.8 |
| 20260503040553 | 17 | 0 | 0.0 | 1.6 | 0.00 | 0.00 | 0.00 | 76 | 1012.8 |
| 20260503040101 | 17 | 0 | 0.0 | 0.0 | 0.00 | 0.00 | 0.00 | 75 | 1012.8 |
| 20260503035554 | 17 | 0 | 0.0 | 0.0 | 0.00 | 0.00 | 0.00 | 75 | 1012.8 |
| 20260503035057 | 17 | 0 | 0.0 | 1.6 | 0.00 | 0.00 | 0.00 | 74 | 1012.7 |
| 20260503034608 | 18 | 0 | 0.0 | 1.6 | 0.00 | 0.00 | 0.00 | 74 | 1012.7 |
| 20260503034054 | 18 | 131 | 0.0 | 1.6 | 0.00 | 0.00 | 0.00 | 74 | 1012.7 |
| 20260503033553 | 18 | 0 | 0.0 | 1.6 | 0.00 | 0.00 | 0.00 | 73 | 1012.7 |
| 20260503033100 | 18 | 126 | 0.0 | 1.6 | 0.00 | 0.00 | 0.00 | 73 | 1012.5 |
| 20260503032554 | 18 | 0 | 0.0 | 1.6 | 0.00 | 0.00 | 0.00 | 73 | 1012.5 |
| 20260503032053 | 18 | 0 | 0.0 | 1.6 | 0.00 | 0.00 | 0.00 | 72 | 1012.5 |
| 20260503031555 | 18 | 145 | 0.0 | 0.0 | 0.00 | 0.00 | 0.00 | 72 | 1012.3 |
| 20260503031054 | 18 | 0 | 0.0 | 1.6 | 0.00 | 0.00 | 0.00 | 71 | 1012.3 |
| 20260503030555 | 18 | 0 | 0.0 | 1.6 | 0.00 | 0.00 | 0.00 | 71 | 1012.4 |
| 20260503030057 | 18 | 0 | 0.0 | 4.8 | 0.00 | 0.00 | 0.00 | 71 | 1012.3 |
| 20260503025553 | 19 | 146 | 0.0 | 8.0 | 0.00 | 0.00 | 0.00 | 70 | 1012.5 |
| 20260503025053 | 19 | 287 | 0.0 | 8.0 | 0.00 | 0.00 | 0.00 | 70 | 1012.5 |
| 20260503024554 | 19 | 3 | 0.0 | 8.0 | 0.00 | 0.00 | 0.00 | 69 | 1012.4 |
| 20260503024053 | 19 | 287 | 0.0 | 11.3 | 0.00 | 0.00 | 0.00 | 69 | 1012.5 |
| 20260503023552 | 20 | 0 | 3.2 | 11.3 | 0.00 | 0.00 | 0.00 | 68 | 1012.4 |
| 20260503023054 | 20 | 288 | 1.6 | 9.7 | 0.00 | 0.00 | 0.00 | 67 | 1012.5 |
| 20260503022552 | 20 | 136 | 1.6 | 8.0 | 0.00 | 0.00 | 0.00 | 66 | 1012.5 |
| 20260503022052 | 21 | 0 | 1.6 | 9.7 | 0.00 | 0.00 | 0.00 | 66 | 1012.5 |
| 20260503021553 | 21 | 309 | 3.2 | 9.7 | 0.00 | 0.00 | 0.00 | 64 | 1012.4 |
| 20260503021055 | 21 | 340 | 1.6 | 6.4 | 0.00 | 0.00 | 0.00 | 64 | 1012.4 |
| 20260503020554 | 21 | 52 | 1.6 | 4.8 | 0.00 | 0.00 | 0.00 | 63 | 1012.3 |
| 20260503020056 | 22 | 293 | 0.0 | 3.2 | 0.00 | 0.00 | 0.00 | 62 | 1012.0 |
| 20260503015554 | 22 | 0 | 0.0 | 4.8 | 0.00 | 0.00 | 0.00 | 62 | 1011.7 |
| 20260503015054 | 22 | 197 | 1.6 | 4.8 | 0.00 | 0.00 | 0.00 | 61 | 1011.7 |
| 20260503014615 | 23 | 276 | 0.0 | 4.8 | 0.00 | 0.00 | 0.00 | 59 | 1011.4 |
| 20260503014053 | 23 | 236 | 1.6 | 1.6 | 0.00 | 0.00 | 0.00 | 58 | 1011.4 |
| 20260503013553 | 23 | 195 | 0.0 | 1.6 | 0.00 | 0.00 | 0.00 | 58 | 1011.4 |
| 20260503013055 | 23 | 0 | 0.0 | 1.6 | 0.00 | 0.00 | 0.00 | 57 | 1011.4 |
| 20260503012553 | 23 | 205 | 0.0 | 3.2 | 0.00 | 0.00 | 0.00 | 57 | 1011.4 |
| 20260503012050 | 23 | 0 | 0.0 | 3.2 | 0.00 | 0.00 | 0.00 | 57 | 1011.4 |
| 20260503011556 | 23 | 186 | 0.0 | 3.2 | 0.00 | 0.00 | 0.00 | 56 | 1011.3 |
| 20260503011053 | 23 | 18 | 1.6 | 4.8 | 0.00 | 0.00 | 0.00 | 56 | 1011.2 |
| 20260503010553 | 23 | 204 | 1.6 | 4.8 | 0.00 | 0.00 | 0.00 | 56 | 1011.2 |
| 20260503010052 | 23 | 167 | 0.0 | 4.8 | 0.00 | 0.00 | 0.00 | 56 | 1011.3 |
| 20260503005554 | 23 | 294 | 1.6 | 4.8 | 0.00 | 0.00 | 0.00 | 55 | 1011.3 |
| 20260503005055 | 23 | 0 | 1.6 | 4.8 | 0.00 | 0.00 | 0.00 | 56 | 1011.4 |
| 20260503004554 | 23 | 276 | 1.6 | 4.8 | 0.00 | 0.00 | 0.00 | 56 | 1011.3 |
| 20260503004054 | 23 | 0 | 0.0 | 6.4 | 0.00 | 0.00 | 0.00 | 56 | 1011.4 |
| 20260503003553 | 23 | 89 | 0.0 | 6.4 | 0.00 | 0.00 | 0.00 | 55 | 1011.4 |
| 20260503003054 | 23 | 224 | 1.6 | 6.4 | 0.00 | 0.00 | 0.00 | 56 | 1011.5 |
| 20260503002553 | 23 | 91 | 1.6 | 8.0 | 0.00 | 0.00 | 0.00 | 57 | 1011.4 |
| 20260503002053 | 23 | 88 | 1.6 | 8.0 | 0.00 | 0.00 | 0.00 | 55 | 1011.4 |
| 20260503001555 | 23 | 298 | 1.6 | 8.0 | 0.00 | 0.00 | 0.00 | 55 | 1011.4 |
| 20260503001054 | 23 | 322 | 1.6 | 8.0 | 0.00 | 0.00 | 0.00 | 56 | 1011.6 |
| 20260503000554 | 23 | 303 | 3.2 | 8.0 | 0.00 | 0.00 | 0.00 | 55 | 1011.7 |
| 20260503000055 | 23 | 330 | 0.0 | 4.8 | 0.00 | 0.00 | 0.00 | 56 | 1011.5 |
| 20260502235553 | 22 | 257 | 1.6 | 4.8 | 0.00 | 0.00 | 0.00 | 56 | 1011.5 |
| 20260502235053 | 22 | 306 | 3.2 | 6.4 | 0.00 | 0.00 | 0.00 | 56 | 1011.6 |
| 20260502234609 | 22 | 314 | 0.0 | 6.4 | 0.00 | 0.00 | 0.00 | 56 | 1011.8 |
| 20260502234053 | 22 | 198 | 1.6 | 8.0 | 0.00 | 0.00 | 0.00 | 57 | 1011.8 |
| 20260502233552 | 22 | 303 | 0.0 | 8.0 | 0.00 | 0.00 | 0.00 | 57 | 1011.9 |
| 20260502233102 | 22 | 309 | 1.6 | 6.4 | 0.00 | 0.00 | 0.00 | 58 | 1011.9 |
| 20260502232552 | 22 | 205 | 0.0 | 6.4 | 0.00 | 0.00 | 0.00 | 58 | 1012.1 |
| 20260502232052 | 22 | 79 | 1.6 | 6.4 | 0.00 | 0.00 | 0.00 | 58 | 1012.1 |
| 20260502231606 | 22 | 310 | 3.2 | 8.0 | 0.00 | 0.00 | 0.00 | 58 | 1012.1 |
| 20260502231053 | 21 | 295 | 1.6 | 8.0 | 0.00 | 0.00 | 0.00 | 58 | 1012.2 |
| 20260502230553 | 21 | 320 | 3.2 | 9.7 | 0.00 | 0.00 | 0.00 | 59 | 1012.2 |
| 20260502230054 | 21 | 306 | 3.2 | 9.7 | 0.00 | 0.00 | 0.00 | 58 | 1012.3 |
| 20260502225552 | 22 | 326 | 0.0 | 6.4 | 0.00 | 0.00 | 0.00 | 58 | 1012.4 |
| 20260502225052 | 21 | 165 | 3.2 | 6.4 | 0.00 | 0.00 | 0.00 | 58 | 1012.4 |
| 20260502224557 | 21 | 303 | 1.6 | 6.4 | 0.00 | 0.00 | 0.00 | 59 | 1012.6 |
| 20260502224053 | 21 | 212 | 1.6 | 6.4 | 0.00 | 0.00 | 0.00 | 59 | 1012.6 |
| 20260502223553 | 21 | 273 | 1.6 | 8.0 | 0.00 | 0.00 | 0.00 | 59 | 1012.8 |
| 20260502223058 | 21 | 178 | 1.6 | 8.0 | 0.00 | 0.00 | 0.00 | 60 | 1012.8 |
| 20260502222553 | 21 | 21 | 1.6 | 9.7 | 0.00 | 0.00 | 0.00 | 61 | 1012.8 |
| 20260502222056 | 20 | 54 | 3.2 | 9.7 | 0.00 | 0.00 | 0.00 | 60 | 1012.9 |
| 20260502221553 | 21 | 281 | 1.6 | 8.0 | 0.00 | 0.00 | 0.00 | 60 | 1013.0 |
| 20260502221054 | 20 | 336 | 1.6 | 6.4 | 0.00 | 0.00 | 0.00 | 62 | 1013.0 |
| 20260502220552 | 20 | 275 | 1.6 | 8.0 | 0.00 | 0.00 | 0.00 | 61 | 1013.1 |
| 20260502215553 | 20 | 153 | 3.2 | 6.4 | 0.00 | 0.00 | 0.00 | 60 | 1013.2 |
| 20260502215054 | 21 | 314 | 1.6 | 6.4 | 0.00 | 0.00 | 0.00 | 60 | 1013.3 |
| 20260502214555 | 21 | 321 | 1.6 | 4.8 | 0.00 | 0.00 | 0.00 | 59 | 1013.4 |
| 20260502214052 | 21 | 95 | 1.6 | 9.7 | 0.00 | 0.00 | 0.00 | 62 | 1013.4 |
| 20260502213554 | 20 | 248 | 3.2 | 9.7 | 0.00 | 0.00 | 0.00 | 61 | 1013.5 |
| 20260502213054 | 20 | 185 | 1.6 | 6.4 | 0.00 | 0.00 | 0.00 | 64 | 1013.5 |
| 20260502212553 | 20 | 119 | 3.2 | 8.0 | 0.00 | 0.00 | 0.00 | 63 | 1013.7 |
| 20260502212053 | 20 | 138 | 1.6 | 8.0 | 0.00 | 0.00 | 0.00 | 63 | 1013.8 |
| 20260502211554 | 19 | 305 | 3.2 | 8.0 | 0.00 | 0.00 | 0.00 | 65 | 1013.8 |
| 20260502211107 | 18 | 120 | 0.0 | 8.0 | 0.00 | 0.00 | 0.00 | 65 | 1013.8 |
| 20260502210553 | 18 | 68 | 3.2 | 8.0 | 0.00 | 0.00 | 0.00 | 64 | 1013.9 |
| 20260502210106 | 19 | 98 | 3.2 | 8.0 | 0.00 | 0.00 | 0.00 | 63 | 1014.0 |
| 20260502205553 | 19 | 279 | 1.6 | 6.4 | 0.00 | 0.00 | 0.00 | 65 | 1014.2 |
| 20260502205057 | 18 | 322 | 1.6 | 4.8 | 0.00 | 0.00 | 0.00 | 66 | 1014.3 |
| 20260502204556 | 18 | 219 | 1.6 | 6.4 | 0.00 | 0.00 | 0.00 | 66 | 1014.5 |
| 20260502204053 | 18 | 238 | 1.6 | 6.4 | 0.00 | 0.00 | 0.00 | 66 | 1014.7 |